星链-34963 (STARLINK-34963)

导读

STARLINK-34963是美国于2025年8月18日发射的星链卫星,隶属于SpaceX公司的星链星座项目。星链项目旨在构建全球卫星互联网星座,为全球各地提供高速低延迟的宽带互联网服务,该卫星的发射进一步扩充了星链星座的在轨卫星规模,完善了全球网络覆盖能力。

Basic Information
目录编号:
65242
目录名称:
STARLINK-34963
国际标识:
2025-179H
轨道中心:
EARTH
卫星名称:
星链-34963
卫星全名:
星链-34963 (STARLINK-34963)
卫星状态:
在轨 (已飞行382 天)
发射日期:
2025-08-18 UTC
国别 :
美国 (US)
星等 :
--
Orbit Information
数据来源 国际轨道数据 AOE轨道数据
星历时间 2026-09-03T09:39:50+0800
1天前
查看轨道信息
2026-09-03T22:00:00+0800
15小时前
查看轨道信息
半长轴 6843.702km 6843.738km
偏心率 0.0001568 0.0001461
轨道倾角 97.283° 97.287°
近地点辐角 86.670° 94.773°
升交点赤经 285.678° 286.185°
平近点角 273.472° 220.974°
近地点 464.491km 464.601km
远地点 466.639km 466.601km
周期 93.907分钟 93.907分钟
每日圈数 15.334379 15.334257
Detailed Information
固有亮度:
5
最大亮度:
2.5
卫星平台:
Starlink V1.0
覆盖范围:
全球
运营商:
太空探索技术公司
运营商所在国:
美国
制造商(研发单位):
太空探索技术公司
制造商所在国:
美国
使用方式:
暂无
Satellite Introduction
Starlink 计划是 SpaceX 推出的全球卫星互联网项目,通过发射低轨道卫星,为全球尤其是偏远地区提供高速、低延迟的互联网服务。自 2019 年起,Starlink 已部署数千颗卫星,旨在缩小全球数字鸿沟,推动互联网普及。该项目还为军事、航空等行业提供通信支持,带来广泛经济效益。
2D Orbit Map
3D Orbit Map
Orbit Altitude Analysis Chart
Orbit Inclination Analysis Chart
Orbit Comprehensive Analysis Chart
View Comprehensive Chart
Conjunction Data List
Event ID Objects TCA Miss Dist (km) Collision Risk Probability Collision Risk Index (CRI) Action
CDM_260902-115305-468606-524222
OBJECT E (54686)
2026-09-02T
11:53:18+0000
1.095 km
极远距离
1.889585E-5 中风险 0.61
CDM_260828-010005-872506-524221
2026-08-28T
01:00:51+0000
2.609 km
极远距离
1.539752E-6 低风险 0.39
CDM_260903-063104-779206-524222
2026-09-03T
06:31:01+0000
2.718 km
极远距离
1.50664E-6 低风险 0.39
CDM_260903-043605-245906-524221
2026-09-03T
04:36:41+0000
2.492 km
极远距离
1.231789E-6 低风险 0.37
CDM_260905-011405-210206-524221
2026-09-05T
01:14:02+0000
2.621 km
极远距离
1.16894E-6 低风险 0.36
CDM_260902-041806-418806-524221
2026-09-02T
04:18:20+0000
2.984 km
极远距离
1.042673E-6 低风险 0.35